Regional Weather Roundup
Issued by NWS

Home | Current Version | Previous Version | Text Only | Print | Product List | Glossary On
Versions: 1 2 3 4 5 6 7 8 9 10 11 12 13 14 15 16 17 18 19 20 21 22 23 24 25 26 27 28 29 30 31 32 33 34 35 36 37 38 39 40 41 42 43 44 45 46 47 48 49 50
109
ASUS43 KLOT 231608
RWRIL

ILLINOIS REGIONAL WEATHER ROUNDUP
NATIONAL WEATHER SERVICE CHICAGO/ROMEOVILLE IL
1100 AM CDT SUN APR 23 2017

NOTE: "FAIR" INDICATES FEW OR NO CLOUDS BELOW 12,000 FEET WITH NO
SIGNIFICANT WEATHER AND/OR OBSTRUCTIONS TO VISIBILITY.

* THESE STATIONS ARE NOT UNDER NWS QUALITY CONTROL. THEY ALSO MAY NOT
  REPORT WEATHER SUCH AS PRECIPITATION OR FOG.

ILZ001-002-007-009-015-016-024-231700-
NORTHWEST ILLINOIS

CITY           SKY/WX    TMP DP  RH WIND       PRES   REMARKS
MOLINE         SUNNY     64  34  32 W3        30.14F
STERLING*      SUNNY     63  34  33 W6        30.15S
SAVANNA*       SUNNY     62  34  35 W5        30.14F
$$

ILZ003-004-008-010-011-017-018-231700-
NORTH CENTRAL ILLINOIS

CITY           SKY/WX    TMP DP  RH WIND       PRES   REMARKS
ROCKFORD       SUNNY     65  32  29 NW5       30.14F
FREEPORT*      SUNNY     62  34  34 NW8       30.15F
ROCHELLE*      SUNNY     62  33  34 NW3       30.14S
DE KALB*       SUNNY     62  32  31 NW6       30.14F
PERU*          SUNNY     60  30  31 NW6       30.14F
$$

ILZ005-006-012>014-019>023-231700-
NORTHEAST ILLINOIS

CITY           SKY/WX    TMP DP  RH WIND       PRES   REMARKS
CHICAGO-OHARE  MOSUNNY   65  27  23 N7        30.12F
CHICAGO-MIDWAY SUNNY     63  29  27 CALM      30.13F
AURORA         SUNNY     63  32  31 N7        30.14F
LANSING*       SUNNY     62  36  37 N6        30.13S
JOLIET*        SUNNY     62  33  33 N3        30.13F
WAUKEGAN       SUNNY     65  30  27 NW8       30.11F
DUPAGE AIRPORT SUNNY     63  32  31 VRB5      30.12F
KANKAKEE*      SUNNY     64  29  27 NE5       30.12F
WHEELING       SUNNY     64  31  28 CALM      30.13F
MORRIS*        SUNNY     63  30  28 CALM      30.12F
ROMEOVILLE*    SUNNY     61  36  39 N3        30.13F
NORTHERLY ISL    N/A     55  42  61 E2          N/A
$$

LMZ740>746-231700-
SOUTHERN LAKE MICHIGAN

STATION/POSITION SKY/WX   TEMP    WIND        PRES    VSBY  WAVE
                          AIR SEA DIR/SP/G                  HT/PER
                          (F)     (DEG/KT/KT) (MB)    (MI)  (FT/S)
HARRISON CRIB              58     140/  4/  4   N/A
BURNHAM HARBOR             54      90/  3/  4   N/A
CALUMET HARBOR             52      60/  5/  6 1019.9S
BURNS HARBOR               49      20/  4/  4 1021.0S
MICHIGAN CITY              51     350/  4/  4   N/A
ST. JOSEPH                 47 49  350/  2/  4 1021.3          1
$$

ILZ025>027-034>036-040-047-049-050-058-095>099-231700-
WEST-CENTRAL ILLINOIS

CITY           SKY/WX    TMP DP  RH WIND       PRES   REMARKS
QUINCY         SUNNY     62  29  28 NE9       30.13F
GALESBURG*     SUNNY     63  34  34 NE6       30.13F
MACOMB*        SUNNY     62  31  31 NE10      30.17S
JACKSONVILLE*  SUNNY     61  32  33 NE10      30.13S
PITTSFIELD*    SUNNY     60  35  38 E12       30.14F
$$

ILZ028>032-037-038-041>044-048-051>054-059>061-231700-
CENTRAL ILLINOIS

CITY           SKY/WX    TMP DP  RH WIND       PRES   REMARKS
PONTIAC        SUNNY     62  31  31 NE9       30.14F
BLOOMINGTON    SUNNY     62  33  33 NE15      30.12F
DECATUR        SUNNY     61  36  39 E15       30.11F
PEORIA         SUNNY     62  32  32 E10       30.13F
LACON*         SUNNY     60  32  34 N6        30.13F
LINCOLN*       SUNNY     63  35  34 NE12G18   30.12S
SPRINGFIELD    SUNNY     64  34  32 N16G22    30.12F
TAYLORVILLE    SUNNY     62  32  32 NE13G18   30.10F
$$

ILZ033-039-045-046-055>057-062-063-231700-
EAST-CENTRAL ILLINOIS

CITY           SKY/WX    TMP DP  RH WIND       PRES   REMARKS
CHAMPAIGN      SUNNY     62  32  32 NE10      30.10F
RANTOUL*       SUNNY     62  32  32 NE12G20   30.11F
MATTOON        SUNNY     61  33  35 NE14      30.08F
PARIS*         SUNNY     61  31  32 NE14G21   30.10S
$$

ILZ079-100>102-231700-
SOUTHWEST ILLINOIS

CITY           SKY/WX    TMP DP  RH WIND       PRES   REMARKS
ALTON          SUNNY     59  32  36 NE12G17   30.11S
BELLEVILLE     SUNNY     61  33  35 N16       30.09S
CAHOKIA*       SUNNY     62  32  32 NE13      30.11S
SPARTA*        SUNNY     56  40  54 N14       30.08F
$$

ILZ064>066-069>071-074>076-080>082-084>086-088>090-092>094-231700-
SOUTH-CENTRAL ILLINOIS

CITY           SKY/WX    TMP DP  RH WIND       PRES   REMARKS
CARBONDALE     SUNNY     57  44  62 NE13      30.03F
CAIRO*         SUNNY     56  44  64 N14G28    29.98F
EFFINGHAM*     SUNNY     60  34  38 N9G17     30.09F
MARION         SUNNY     59  43  55 N17       30.03S
MT. VERNON     SUNNY     59  38  45 NE12G24   30.05F
CENTRALIA*     SUNNY     58  40  52 N9G18     30.06F
SALEM*         SUNNY     59  33  37 NE14G20   30.07F
METROPOLIS*    SUNNY     58  44  59 N14G21    29.97F
$$

ILZ067-068-072-073-078-083-087-091-231700-
SOUTHEAST ILLINOIS

CITY           SKY/WX    TMP DP  RH WIND       PRES   REMARKS
LAWRENCEVILLE  SUNNY     60  36  40 NE18G26   30.04F
FLORA*         SUNNY     59  37  43 NE12G20   30.06F
FAIRFIELD*     SUNNY     58  41  53 N8        30.03F
HARRISBURG*    SUNNY     58  44  60 N17G24    30.02S
ROBINSON*      SUNNY     59  34  39 NE16G23   30.06F
CARMI*         SUNNY     57  44  61 NE16G23   30.01F
$$

ABBREVIATIONS USED IN REMARKS
   TC - TEMPERATURE IN CELSIUS
  WCI - WIND CHILL INDEX
   HX - HEAT INDEX
  VSB - VISIBILITY
$$





USA.gov is the U.S. government's official web portal to all federal, state and local government web resources and services.